Showing default

CUBEL, 47448

Orbit data source: Space-Track

CUBEL, 47448 is a payload satellite owned by DLR (DE) in SSO that was launched on Sun, 24 Jan 2021 UTC via an FALCON 9 launch vehicle from the Air Force Eastern Test Range (AFETR). Payload-class satellites include a variety of spacecraft equipped with specific instruments for various scientific and technological missions. These include communications satellites like Starlink; space stations such as the ISS; scientific satellites like the Hubble; Earth observation satellites from companies like Planet Labs, Umbra, and HawkEye 360; GPS; miniature CubeSats for education and research; and military/defense satellites.

Loading next visibility...
Identifier
47448, 2021-006AM
Orbit
SSO
Country
Flag of DEDE / GER
Related business
Manufacturer
DLR2/GOMSP
Mission
Operational Civil Technology
Bus & Motor
CUBESAT 3U, Unknown motor
Mass
4 kg wet, 4 kg dry
Launch date (UTC)
2021-01-24 (5 years ago)
Launch vehicle
FALCON 9
Launch site
Air Force Eastern Test Range (AFETR)
Object type
Payload
Rocket body
Debris
Shape & HBR
Box, Unknown HBR
Radar Cross Section
0.035 m², Small (<0.1 m²)

Expand to show TLE details & history
Last TLE update: 18 hours ago

TLE from 18 hours ago
0 CUBEL
1 47448U 21006AM  25261.10260358  .00013923  00000-0  42240-3 0  9990
2 47448  97.2786 309.7769 0009319  81.6945 278.5355 15.34176810257931
Epoch: 2025-09-18T02:27Z
TLE epoch observation values (Epoch: 2025-09-18T02:27:44.949Z)
Latitude
0.00004°
Longitude
-84.42941°
Altitude
465.539 km
Speed
7.634 km/s
True Right ascension
20h 39m 06s
True Declination
0° 00' 00"
Sunlit
Object was in full shadow at epoch
Visualization orbit readout
Latitude
Unknown
Longitude
Unknown
Altitude
Unknown
Speed
Unknown
Apparent Right ascension
Unknown
Apparent Declination
Unknown
Sunlit
N/A
Visualization observer readout
Local Sidereal Time
13:29:48
Azimuth
Unknown
Elevation
Unknown
Doppler factor
Unknown
Orbital elements
Apogee altitude
466.681 km
Perigee altitude
453.935 km
Semi-major axis
6,838.445 km
Eccentricity
0.00093
Inclination
97.2786°
RAAN
309.7769°
Arg. of periapsis
81.6945°
True anomaly
278.42988°
Mean anomaly
278.5355°
Eccentric anomaly
278.48269°
Mean motion
3.83802 °/min
Orbital period
93.8 mins
BSTAR
0.0004224
Loading maneuver chart data...
Computing Atmospheric mass density...

Documentation

Showing up to 5 results
|